Regional Weather Roundup
Issued by NWS Upton, NY

Current Version | Previous Version | Text Only | Print | Product List | Glossary On
Versions: 1 2 3 4 5 6 7 8 9 10 11 12 13 14 15 16 17 18 19 20 21 22 23 24 25 26 27
000 ASUS41 KOKX 031908 RWROKX REGIONAL WEATHER ROUNDUP NATIONAL WEATHER SERVICE NEW YORK NY 200 PM EST SAT DEC 03 2016 NOTE: "FAIR" INDICATES FEW OR NO CLOUDS BELOW 12,000 FEET WITH NO SIGNIFICANT WEATHER AND/OR OBSTRUCTIONS TO VISIBILITY. NYZ071-072-176-178-NJZ106-104-032000- NEW YORK CITY METRO AREA CITY SKY/WX TMP DP RH WIND PRES REMARKS Central Park MOSUNNY 47 24 40 NW14G26 30.04F Wall St Helipt PTCLDY 50 28 42 N8 30.04S Bronx Bot Gard N/A 46 25 42 W16 30.01F LaGuardia APRT PTSUNNY 49 27 42 NW20 30.02F Kennedy INTL PTSUNNY 49 24 37 NW20G32 30.03F Breezy Point N/A 46 N/A N/A NW18G31 N/A Newark/Liberty MOSUNNY 48 26 42 NW21G28 30.03F Teterboro MOSUNNY 47 25 42 NW20G31 30.02F $$ NYZ177-179-078>081-032000- LONG ISLAND NEW YORK CITY SKY/WX TMP DP RH WIND PRES REMARKS Jones Beach N/A 46 N/A N/A NW18G28 N/A Matinecock PT N/A 46 N/A N/A NW25 N/A Farmingdale PTSUNNY 48 26 42 NW21G31 30.01S MacArthur/ISP MOSUNNY 48 27 44 NW17G28 29.98F Shirley PTSUNNY 47 27 45 NW12G26 29.99S Westhampton CLOUDY 45 27 49 NW16 29.99R Southampton N/A 46 32 57 N12 29.94R Bridgehampton NOT AVBL East Hampton PTSUNNY 44 27 50 NW15G24 29.95R Montauk N/A 46 28 49 NW16G29 29.95R $$ NYZ052-065-067-032000- HUDSON VALLEY CITY SKY/WX TMP DP RH WIND PRES REMARKS White Plains PTSUNNY 45 25 45 NW21G32 29.99S Newburgh PTSUNNY 43 28 56 NW24G32 30.02S Montgomery PTSUNNY 44 26 49 NW16G25 30.02R Poughkeepsie PTSUNNY 44 26 49 NW9 30.00S Albany PTSUNNY 40 24 53 NW20G28 30.01S WCI 30 $$ NJZ001-105-106-008-010-013-015-019>022-104-032000- NEW JERSEY CITY SKY/WX TMP DP RH WIND PRES REMARKS Newark/Liberty MOSUNNY 48 26 42 NW21G28 30.03F Teterboro MOSUNNY 47 25 42 NW20G31 30.02F Caldwell PTSUNNY 46 26 45 NW15G26 30.04F Somerville PTSUNNY 49 26 41 NW14G23 30.04S Linden MOCLDY N/A N/A N/A NW16G25 30.04F Sussex CLOUDY 44 27 51 VRB7G20 30.05S Andover N/A 45 28 51 NW13G21 30.04F Trenton CLOUDY 50 26 39 NW14 30.06F Millville MOSUNNY 51 32 48 NW15G26 30.08F Atlantic City MOSUNNY 52 27 38 NW23G31 30.05F Wrightstown PTSUNNY 50 29 44 NW16G24 30.03F Toms River SUNNY 49 27 42 NW17G32 30.04F Belmar MOSUNNY N/A N/A N/A NW24G31 30.03F $$ PAZ047>061-062-071-032000- EASTERN PENNSYLVANIA CITY SKY/WX TMP DP RH WIND PRES REMARKS Philadelphia PTSUNNY 51 28 41 NW17 30.08F Allentown CLOUDY 48 27 44 W16 30.07F Scranton CLOUDY 42 28 57 W14G22 30.06F $$ CTZ002-004>006-009-010-012-RIZ004-006-007-MAZ004-011-015-032000- SOUTHERN NEW ENGLAND IN CT CITY SKY/WX TMP DP RH WIND PRES REMARKS Bradley INTL PTSUNNY 42 22 44 NW20G29 29.96S Hartford PTSUNNY 44 24 45 NW18G28 29.98R Danbury CLOUDY 43 25 49 NW9 29.99S Wtrbury/Oxford PTSUNNY 41 25 52 NW12G23 29.98S Bridgeport CLOUDY 47 25 42 NW13G21 29.98S Meriden PTSUNNY 45 25 45 N16G24 29.98R New Haven PTSUNNY 44 27 51 NW10G20 29.98 Chester MOCLDY 43 25 49 NW16G31 29.95S Groton MOSUNNY 47 26 44 NW20G26 29.93R Wilimantic CLOUDY 44 25 47 NW9G20 29.95S IN RI CITY SKY/WX TMP DP RH WIND PRES REMARKS Providence PTSUNNY 44 24 45 NW16G25 29.91R Block Island SUNNY 45 28 51 NW18G26 29.91S Westerly MOSUNNY 46 23 40 NW13G26 29.93R IN MA CITY SKY/WX TMP DP RH WIND PRES REMARKS Boston CLOUDY 44 25 47 NW21G31 29.88S Worcester CLOUDY 37 23 56 NW17 29.89R WCI 27 Westfield PTSUNNY 42 25 50 NW15 29.95S Provincetown CLOUDY 44 29 55 NW22G31 29.86R Nantucket MOSUNNY 47 27 45 NW17 29.85S $$ ANZ330-335-338-340-345-350-353-355-032000- COASTAL MARINE OBSERVATIONS STATION/POSITION TIME SKY/WX TEMP WIND PRES VSBY WAVE AIR SEA DIR/SP/G HT/PER (UTC) (F) (DEG/KT/KT) (MB) (MI) (FT/S) NY HARB ENTRANCE 1850 48 55 310/ 23/ 29 1016.0 4/ 4 20 S FIRE ISLAND 1750 46 54 300/ 23/ 29 1015.4 5/ 5 GREAT SOUTH BAY 1830 45 45 N/A 23 SSW MONTAUK P 1850 47 56 300/ 25/ 31 1013.8 7/ 6 15 E BARNEGAT LI 1830 54 N/A 5/ 5 HUDSON CANYON 1750 48 59 1015.0 9/ 8 KINGS POINT 1830 46 48 1016.5 EXECUTION ROCKS 1845 47 290/ 17/ 25 N/A CENTRAL LI SOUND 1830 46 51 300/ 19/ 23 N/A 3/ 5 EASTERN LI SOUND NOT AVBL ROBBINS REEF 1830 46 310/ 24/ 30 1016.8 $$ >>>>>>>>>>>>>>>>>>>>>>>>>>>> KEY <<<<<<<<<<<<<<<<<<<<<<<<<<< > < > SKY/WX - Sky Condition/Present Weather < > TMP - Temperature in Fahrenheit < > DP - Dew Point in Fahrenheit < > RH - Relative Humidity in Percent < > WIND - Direction (from) and Speed in MPH < > PRES - Mean Sea Level Pressure (inches of Hg) < > WCI - Wind Chill Index < > VSB - VISIBILITY IN MILES < > HX - HEAT INDEX < > TC - TEMPERATURE IN CELSIUS < > VRB - VARIABLE WIND DIRECTION < > < >>>>>>>>>>>>>>>>>>>>>>>>>>>> KEY <<<<<<<<<<<<<<<<<<<<<<<<<<<

USA.gov is the U.S. government's official web portal to all federal, state and local government web resources and services.